Location: Biltmore Gardens
(41.6070°N, 83.4666°W)
Time: 13:57:46
(UTC+00:00)

DELTA 2 DEB (DPAF) - Pass Details

Date: 14 July 2020
Orbit: 640 x 647 km, 98.3° (Epoch: 05 August)

Event Time Altitude Azimuth Distance (km) Brightness Sun altitude
Exits shadow 07:17:29 67° 245° (WSW) 700 4.0 -22.9°
Maximum altitude 07:17:37 68° 258° (WSW) 697 4.1 -22.9°
Drops below altitude 10° 07:22:04 10° 342° (NNW) 2,050 7.3 -22.5°
Sets 07:24:18 0° 345° (NNW) 2,963 8.3 -22.3°
